Probability
0 0 0 0 0 0 0 0 0 0 0 1 2 2 3 9 22 37 48 60 73 84 86 85 84 86 87 86 75 55 40 32 28 25 18 11 5 2 1 0 0 0 0 0
0 0 0 0 0 0 0 0 0 0 0 0 1 1 1 4 15 30 43 57 73 84 87 86 84 82 80 76 63 47 36 29 26 24 20 15 9 4 1 0 0 0 0 0
0 0 0 0 0 0 0 0 0 0 0 0 0 0 0 1 8 22 38 55 72 83 87 83 77 71 64 57 47 38 33 29 28 28 25 20 15 8 3 1 1 1 1 0
0 0 0 0 0 0 0 0 0 0 0 0 0 0 0 1 6 19 35 50 65 77 80 72 64 57 50 41 34 30 31 34 36 39 39 31 19 9 5 4 4 3 2 1
0 0 0 0 0 0 0 0 0 0 0 0 0 0 1 2 6 15 29 41 53 62 63 57 51 48 43 34 24 23 32 42 48 55 60 52 34 20 14 11 8 5 2 1
0 0 0 0 0 0 0 0 0 0 0 0 0 0 1 2 3 9 19 30 37 39 39 37 35 35 34 29 22 24 36 51 60 68 75 72 59 46 35 25 15 7 4 2
0 0 0 0 0 0 0 0 0 0 0 0 0 0 0 0 1 3 9 15 17 16 16 16 16 18 20 21 23 30 43 58 68 75 80 81 78 69 54 36 21 12 7 4
0 0 0 0 0 0 0 0 0 0 0 0 0 0 0 0 0 0 2 3 3 3 3 3 4 7 10 14 20 30 45 57 64 71 77 82 84 77 64 49 34 22 15 11
0 0 0 0 0 0 0 0 0 0 0 0 0 0 1 1 1 0 0 0 0 0 0 0 1 3 5 8 12 21 33 42 46 51 59 67 73 74 69 64 54 42 33 28
0 0 0 0 0 0 0 0 0 0 0 0 0 1 3 3 2 0 0 0 0 0 0 0 0 0 1 2 4 9 13 18 21 26 32 40 51 58 61 63 63 59 53 48
0 0 0 0 0 0 0 0 0 0 0 0 0 1 2 2 1 0 0 0 0 0 0 0 0 0 0 0 0 1 2 4 7 9 13 20 28 34 39 45 51 57 58 53
0 0 0 0 0 0 0 0 0 0 0 0 0 1 1 1 0 0 0 0 0 0 0 0 0 0 0 0 0 0 0 0 1 2 4 8 12 16 21 25 32 41 47 48
0 0 0 0 0 0 0 0 0 0 0 0 0 1 1 1 0 0 0 0 0 0 0 0 0 0 0 0 0 0 0 0 0 0 0 1 3 5 9 13 18 25 33 37
0 0 0 0 0 0 0 0 0 0 0 0 0 0 0 0 0 0 0 0 0 0 0 0 0 0 0 0 0 0 0 0 0 0 0 0 0 1 2 4 8 13 18 22
0 0 0 0 0 0 0 0 0 0 0 0 0 0 0 0 0 0 0 0 0 0 0 0 0 0 0 0 0 0 0 0 0 0 0 0 0 0 0 0 2 6 9 10
0 0 0 0 0 0 0 0 0 0 0 0 0 0 0 0 0 0 0 0 0 0 0 0 0 0 0 0 0 0 0 0 0 0 0 0 0 0 0 0 0 2 5 6
0 0 0 0 0 0 1 0 0 0 0 0 0 0 0 0 0 0 0 0 0 0 0 0 0 0 0 0 0 0 0 0 0 0 0 0 0 0 0 0 0 1 3 5
0 0 0 0 0 0 0 0 0 0 0 0 0 0 0 0 0 0 0 0 0 0 0 0 0 0 0 0 0 0 0 0 0 0 0 0 0 0 0 0 0 0 2 3
0 0 0 0 0 0 0 0 0 0 0 0 0 0 0 0 0 0 0 0 0 0 0 0 0 0 0 0 0 0 0 0 0 0 0 0 1 0 0 0 0 0 1 1
0 0 0 0 0 0 0 0 0 0 0 0 0 0 0 0 0 0 0 0 0 0 0 0 0 0 0 0 0 0 0 0 0 0 0 0 0 0 0 0 0 0 0 0
0 0 0 0 0 0 0 0 0 0 0 0 0 0 0 0 0 0 0 0 0 0 0 0 0 0 0 0 0 0 0 0 0 0 0 0 0 0 0 0 0 0 0 0
0 0 0 0 0 0 0 0 0 0 0 0 0 0 0 0 0 0 0 0 0 0 0 0 0 0 0 0 0 0 0 0 0 0 0 0 0 0 0 0 0 0 0 0
0 0 0 0 0 0 0 0 0 0 0 0 0 0 0 0 0 0 0 0 0 0 0 0 0 0 0 0 0 0 0 0 0 0 0 0 0 0 0 0 0 0 0 0
0 0 0 0 0 0 0 0 0 0 0 0 0 0 0 0 0 0 0 0 0 0 0 0 0 0 0 0 0 0 0 0 0 0 0 0 0 0 0 0 0 0 0 0
0 0 0 0 0 0 0 0 0 0 0 0 0 0 0 0 0 0 0 0 0 0 0 0 0 0 0 0 0 0 0 0 0 0 0 0 0 0 0 0 0 0 0 0
0 0 0 0 0 0 0 0 0 0 0 0 0 0 0 0 0 0 0 0 0 0 0 0 0 0 0 0 0 0 0 0 0 0 0 0 0 0 0 0 0 0 0 0
Wind_Speed
3 5 0 2 2 3 1 3 2 1 3 5 3 4 1 0 2 3 5 5 6 6 6 6 6 7 8 8 7 6 6 7 5 4 3 3 3 3 3 4 4 6 7 7
7 3 4 1 2 3 3 4 3 2 1 6 7 8 4 2 2 3 4 5 6 5 6 6 6 7 7 7 6 6 6 6 6 4 3 2 2 3 3 4 3 5 6 7
2 6 1 3 4 3 2 4 5 6 6 7 8 12 8 5 3 2 3 4 4 5 6 6 6 5 4 5 5 3 4 5 6 5 5 3 4 5 4 4 3 4 6 7
1 3 1 4 2 5 4 2 6 8 10 9 5 11 5 3 2 1 2 2 2 3 3 3 3 2 2 2 1 2 4 5 6 7 7 7 5 5 4 4 4 5 6 6
1 3 4 5 4 6 6 3 7 9 10 11 8 10 2 3 3 5 5 5 4 3 4 4 4 3 3 3 4 5 6 6 7 8 8 7 8 6 4 4 5 6 6 6
3 2 4 5 4 4 2 6 8 9 9 9 2 8 1 7 9 9 9 10 10 9 8 9 9 8 7 7 6 6 6 7 7 8 8 8 8 7 7 7 7 6 5 5
2 2 1 3 7 4 6 9 8 7 6 2 2 7 6 9 9 10 10 12 13 13 13 13 13 13 12 12 10 8 6 6 6 7 7 7 8 8 8 8 7 7 7 6
4 2 2 3 7 9 9 10 10 9 8 6 4 5 9 8 8 9 11 12 13 14 14 14 14 14 13 14 13 12 10 8 7 6 6 6 7 8 7 7 8 8 7 7
5 5 1 1 4 8 9 8 9 11 13 12 7 4 10 7 8 9 10 11 12 13 13 13 13 13 13 13 13 13 12 11 10 9 8 7 7 8 9 9 9 9 7 7
6 9 8 2 4 1 5 7 6 9 9 10 8 8 5 6 5 7 8 9 10 11 11 12 12 12 12 12 11 12 12 11 11 11 9 8 8 9 9 10 11 10 10 9
7 9 9 6 5 7 4 4 5 8 8 10 13 4 8 6 4 5 6 8 9 10 11 10 10 11 11 11 11 11 11 11 11 11 11 11 10 10 10 10 11 11 11 10
4 8 10 9 1 2 5 5 5 7 8 9 13 2 8 6 4 5 7 8 9 10 10 11 11 10 10 11 11 11 11 11 11 11 11 12 12 12 12 12 12 11 11 11
4 7 11 7 6 6 5 4 7 9 11 11 13 1 7 4 4 6 9 11 12 13 12 11 11 10 10 11 11 11 11 11 11 11 11 11 12 12 13 13 13 12 12 12
6 10 12 14 11 9 7 5 7 10 11 12 11 3 4 3 5 8 10 11 12 12 12 11 10 10 9 9 9 10 10 9 10 10 10 10 10 11 12 13 14 13 13 12
5 9 9 10 8 6 4 4 6 7 9 10 9 6 5 6 9 10 11 12 13 13 12 11 11 11 11 11 11 11 11 11 10 10 11 11 10 10 11 12 13 13 13 13
3 7 8 9 3 2 2 5 5 4 6 7 7 3 4 8 10 11 12 14 16 15 15 15 15 16 15 15 15 14 14 13 13 13 14 13 12 12 11 11 12 13 13 12
4 6 8 9 2 8 3 6 7 6 6 8 8 6 10 13 14 14 16 17 17 17 17 18 18 18 17 17 17 16 16 16 15 15 15 15 14 14 13 13 12 12 12 12
5 6 6 9 9 8 8 5 7 8 8 5 5 8 13 16 17 17 19 17 16 18 20 20 19 20 20 19 19 18 18 17 17 16 16 16 16 15 14 13 13 12 11 10
4 5 7 7 10 2 6 5 8 9 10 3 7 15 19 20 21 19 15 17 20 22 22 21 21 21 21 20 20 19 19 18 18 17 17 16 16 16 15 14 13 11 10 10
1 4 7 6 9 5 6 6 6 8 7 5 15 20 21 23 20 16 20 22 23 22 21 21 22 22 21 21 20 20 20 19 18 18 17 16 16 16 16 15 14 11 9 10
7 6 6 8 7 4 6 7 10 10 11 17 19 20 22 22 20 23 24 23 23 23 23 23 22 21 20 20 19 20 20 20 19 18 17 16 16 16 16 15 13 12 10 9
8 7 6 7 6 4 7 9 9 12 16 17 20 21 22 23 24 24 25 24 24 24 24 24 21 20 19 19 20 21 21 20 19 18 18 17 17 16 14 14 13 12 10 10
4 6 6 6 5 4 6 8 11 13 17 19 20 22 23 24 25 26 25 24 24 24 24 22 22 22 20 19 19 21 20 19 19 18 18 17 17 15 15 14 14 12 10 8
3 1 4 5 3 6 11 11 13 16 19 21 21 23 24 26 27 27 25 23 24 24 23 22 22 22 20 19 18 18 18 18 18 18 17 16 15 15 15 12 12 11 9 8
3 1 4 6 6 11 10 15 18 19 20 21 22 23 24 26 27 27 24 24 23 22 22 21 20 20 21 19 18 18 18 17 18 17 16 15 14 14 13 12 11 11 9 6
1 3 6 7 10 13 18 18 20 20 21 22 24 25 24 25 26 26 24 23 23 23 22 21 21 21 21 20 19 19 18 17 17 15 14 11 11 10 11 11 10 10 9 7
Wind_Direction
251 248 97 61 341 4 281 255 237 58 17 315 313 303 327 149 223 212 206 197 200 196 172 167 167 163 159 159 159 168 166 162 175 181 201 210 231 262 281 290 311 301 304 308
221 139 63 80 181 220 226 239 237 213 350 306 300 285 263 232 251 271 254 229 218 205 183 171 167 161 160 154 153 165 169 169 187 183 206 230 274 276 299 303 301 295 304 305
6 62 72 204 182 226 254 298 320 316 309 252 277 263 222 191 219 246 258 252 237 221 201 175 166 153 155 162 165 174 184 184 202 199 209 205 223 243 249 276 282 298 304 302
56 71 281 261 264 295 285 335 303 298 291 289 286 285 234 189 217 286 306 289 259 233 216 170 152 141 183 211 197 225 232 220 216 216 226 233 253 274 301 298 303 302 290 296
360 347 306 293 323 295 327 329 284 290 286 280 253 268 208 113 1 7 22 17 10 29 36 37 27 15 343 322 297 270 256 243 232 232 233 237 248 261 275 286 288 288 291 287
305 284 297 317 308 292 272 250 249 251 259 255 256 282 126 52 9 6 31 36 32 31 34 31 22 15 360 343 316 288 271 259 249 241 242 243 256 264 277 280 290 286 290 289
264 223 197 284 288 223 252 278 281 267 245 257 121 270 66 53 34 30 38 43 40 38 36 33 28 23 17 9 356 337 316 295 279 261 256 252 257 260 258 268 275 282 292 296
296 294 23 344 325 315 297 289 283 294 299 298 229 259 95 80 65 57 53 50 46 44 41 39 34 30 26 22 16 10 0 348 335 312 295 282 272 265 264 261 277 281 285 295
308 311 347 329 314 303 295 279 300 286 277 277 272 140 128 110 79 64 56 51 46 40 37 34 31 27 24 22 21 17 15 10 3 353 339 316 298 285 283 278 263 266 269 277
298 299 308 324 248 181 311 312 277 273 283 285 274 248 173 115 71 61 50 41 36 30 26 24 20 18 15 14 14 13 12 8 3 358 349 340 324 307 292 282 279 275 273 270
290 292 295 281 301 326 274 249 283 282 289 291 291 321 67 81 63 33 33 25 16 9 7 7 6 4 2 1 3 2 1 359 357 354 346 339 332 325 313 297 286 277 269 265
306 294 297 297 32 248 276 301 287 287 288 277 281 337 82 77 58 24 5 1 355 349 347 348 350 350 349 349 348 348 345 346 343 343 339 337 332 330 323 316 304 290 276 265
307 280 285 275 190 193 237 268 284 287 285 278 283 45 100 79 34 9 353 347 340 336 334 333 335 335 335 333 331 329 327 329 328 328 327 327 325 328 325 319 312 301 285 270
279 267 278 295 312 317 289 276 284 283 283 293 305 15 111 32 350 344 338 330 323 318 314 311 311 310 309 307 305 304 304 305 307 308 306 307 310 314 317 317 316 308 293 275
274 270 278 286 297 291 302 319 318 308 316 314 333 355 46 6 338 325 316 312 307 303 298 293 292 293 295 296 295 293 292 291 290 288 287 287 289 295 299 306 310 307 297 281
284 288 289 276 283 233 112 23 355 351 340 332 323 346 28 335 319 307 305 303 301 301 302 301 301 302 302 302 300 298 296 293 290 287 287 287 286 286 290 296 302 305 301 290
290 286 288 289 266 241 170 29 2 348 336 326 322 346 334 319 316 312 309 302 301 306 309 309 307 305 303 300 299 296 294 292 290 287 286 285 284 284 286 291 298 303 304 298
324 308 285 295 287 279 74 42 1 330 312 301 300 318 320 316 314 308 296 298 308 311 309 306 303 301 299 298 297 295 292 290 288 286 284 284 283 281 281 283 288 296 301 299
8 325 307 309 300 117 106 34 358 325 309 319 316 321 320 319 310 300 316 327 315 307 304 302 300 299 298 296 294 292 290 288 286 284 284 283 283 282 280 278 281 288 294 296
41 321 308 320 308 331 74 22 336 292 279 25 331 321 320 317 309 315 325 314 306 304 302 300 298 296 294 293 293 291 289 285 283 283 282 282 282 280 277 276 278 278 281 286
326 322 333 323 312 73 44 345 318 301 333 335 321 317 315 313 307 307 308 307 306 303 301 299 297 295 293 293 291 287 285 283 282 281 280 279 276 275 272 269 267 267 271 280
331 331 342 325 315 61 19 339 337 318 316 315 315 315 312 309 306 306 307 307 305 303 302 301 298 295 294 291 288 285 283 283 282 279 276 274 272 271 270 264 261 260 265 271
357 4 338 340 357 32 340 316 314 314 313 315 315 313 311 309 308 308 308 306 304 303 302 300 297 296 294 290 287 285 286 286 284 279 275 273 270 266 265 264 259 253 249 258
113 290 301 299 300 314 315 314 322 323 318 314 313 312 311 308 308 308 307 306 305 303 303 301 299 296 295 293 289 286 286 284 280 276 273 270 267 263 258 254 252 248 247 251
43 310 304 285 314 315 314 328 326 320 315 312 311 310 309 308 307 308 307 305 305 304 302 300 298 297 295 292 288 286 283 280 276 272 269 266 262 262 262 254 248 249 246 251
67 359 329 330 335 316 317 323 320 317 315 314 313 311 310 309 307 307 306 306 304 303 302 302 300 297 295 292 288 284 280 275 270 267 263 259 255 255 255 252 243 221 229 199